This demonstration page uses our WeatherBlox Daily Observations layout. Learn more.

36.17497, -115.13722

Hourly Observations for November 22, 2019

Temp ( °F °C ) Dew Point ( °F °C ) Humidity (%) Winds ( mph kmh ) Pressure ( in mb ) Visibility ( mi km ) Precip ( " mm )
12:53 am 00:53 Mostly Cloudy 44 6.7 41 5 89 89 W 5 7 30.19 1022 10 16.0934 0 0
1:53 am 01:53 Partly Cloudy 43 6.1 40 4.4 89 89 WNW 6 9 30.19 1023 8 12.87472 0 0
2:53 am 02:53 Clear 42 5.6 39 3.9 89 89 NNW 3 6 30.2 1023 8 12.87472 0 0
3:53 am 03:53 Clear 41 5 38 3.3 89 89 WNW 6 9 30.21 1023 10 16.0934 0 0
4:53 am 04:53 Clear 41 5 38 3.3 89 89 WNW 5 7 30.23 1024 8 12.87472 0 0
5:53 am 05:53 Clear 41 5 38 3.3 89 89 W 5 7 30.25 1024 7 11.26538 0 0
6:53 am 06:53 Sunny with Mist and Fog 42 5.6 38 3.3 85 85 N 3 6 30.27 1025 5 8.0467 0 0
7:53 am 07:53 Sunny 45 7.2 39 3.9 80 80 Calm 30.29 1026 10 16.0934 0 0
8:53 am 08:53 Sunny 51 10.6 39 3.9 64 64 NNE 3 6 30.29 1026 10 16.0934 0 0
9:53 am 09:53 Sunny 51 10.6 40 4.4 66 66 VRB 3 6 30.3 1026 10 16.0934 0 0
10:53 am 10:53 Sunny 53 11.7 40 4.4 61 61 Calm 30.29 1026 10 16.0934 0 0
11:53 am 11:53 Sunny 55 12.8 41 5 59 59 E 6 9 30.26 1025 10 16.0934 0 0
12:53 pm 12:53 Sunny 56 13.3 41 5 57 57 E 5 7 30.23 1024 10 16.0934 0 0
1:53 pm 13:53 Sunny 56 13.3 41 5 57 57 ENE 6 9 30.23 1024 10 16.0934 0 0
2:53 pm 14:53 Mostly Sunny 57 13.9 41 5 55 55 SE 3 6 30.22 1024 10 16.0934 0 0
3:53 pm 15:53 Mostly Sunny 56 13.3 39 3.9 53 53 Calm 30.23 1024 10 16.0934 0 0
4:53 pm 16:53 Clear 56 13.3 39 3.9 53 53 Calm 30.24 1024 10 16.0934 0 0
5:53 pm 17:53 Clear 54 12.2 40 4.4 59 59 Calm 30.25 1025 10 16.0934 0 0
6:53 pm 18:53 Clear 52 11.1 41 5 66 66 WNW 3 6 30.27 1025 10 16.0934 0 0
7:53 pm 19:53 Clear 50 10 42 5.6 74 74 WNW 5 7 30.28 1025 10 16.0934 0 0
8:53 pm 20:53 Clear 49 9.4 41 5 74 74 W 6 9 30.28 1025 10 16.0934 0 0
9:53 pm 21:53 Clear 48 8.9 40 4.4 74 74 NW 7 11 30.28 1025 10 16.0934 0 0
10:53 pm 22:53 Clear 48 8.9 39 3.9 71 71 WNW 8 13 30.28 1025 10 16.0934 0 0
11:53 pm 23:53 Clear 48 8.9 37 2.8 66 66 Calm 30.28 1026 10 16.0934 0 0

Powered by AerisWeather